When you browse on this site, cookies collect data to enhance your experience and personalize the content and advertising you see.
Visit our Privacy Policy to learn more. By continuing to use the site, you agree to this use of cookies and data.
  • In Hungary
  • List of Countries
  • For 7 days
  • Water Temperature
  • Satellite Maps
  • Weather Map
  • News
  • Weather Widgets
  • user-avatar
    Login

    Hourly Weather Carregado

    Today, 24 July, Wednesday

    Time Temperature Precipitation Wind Pressure Humidity
    00:00 +18°C° 0 mm 3 mps 755 mmHg 85%
    01:00 +17°C° 0 mm 2 mps 755 mmHg 87%
    02:00 +17°C° 0 mm 2 mps 754 mmHg 90%
    03:00 +17°C° 0 mm 2 mps 754 mmHg 89%
    04:00 +18°C° 0 mm 1 mps 754 mmHg 87%
    05:00 +18°C° 0 mm 1 mps 754 mmHg 86%
    06:00 +21°C° 0 mm 1 mps 754 mmHg 73%
    07:00 +24°C° 0 mm 2 mps 755 mmHg 59%
    08:00 +27°C° 0 mm 2 mps 755 mmHg 46%
    09:00 +29°C° 0 mm 2 mps 755 mmHg 39%
    10:00 +31°C° 0 mm 2 mps 755 mmHg 32%
    11:00 +35°C° 0 mm 2 mps 754 mmHg 25%
    12:00 +34°C° 0 mm 3 mps 754 mmHg 27%
    13:00 +34°C° 0 mm 4 mps 754 mmHg 28%
    14:00 +34°C° 0 mm 5 mps 753 mmHg 30%
    15:00 +32°C° 0 mm 5 mps 753 mmHg 38%
    16:00 +30°C° 0 mm 5 mps 753 mmHg 46%
    17:00 +28°C° 0 mm 5 mps 753 mmHg 54%
    18:00 +25°C° 0 mm 4 mps 754 mmHg 67%
    19:00 +22°C° 0 mm 4 mps 754 mmHg 80%
    20:00 +20°C° 0 mm 3 mps 754 mmHg 93%
    21:00 +20°C° 0 mm 2 mps 754 mmHg 94%
    22:00 +19°C° 0 mm 2 mps 754 mmHg 95%
    23:00 +20°C° 0 mm 1 mps 754 mmHg 97%

    Tomorrow, 25 July, Thursday

    Time Temperature Precipitation Wind Pressure Humidity
    00:00 +20°C° 0 mm 1 mps 754 mmHg 97%
    01:00 +20°C° 0 mm 1 mps 754 mmHg 97%
    02:00 +20°C° 0 mm 1 mps 754 mmHg 97%
    03:00 +21°C° 0 mm 1 mps 754 mmHg 95%
    04:00 +21°C° 0 mm 1 mps 754 mmHg 93%
    05:00 +22°C° 0 mm 1 mps 754 mmHg 91%
    06:00 +23°C° 0 mm 1 mps 754 mmHg 86%
    07:00 +24°C° 0 mm 1 mps 754 mmHg 81%
    08:00 +24°C° 0 mm 1 mps 755 mmHg 76%
    09:00 +26°C° 0 mm 2 mps 755 mmHg 67%
    10:00 +28°C° 0 mm 3 mps 755 mmHg 58%
    11:00 +30°C° 0 mm 3 mps 755 mmHg 49%
    12:00 +30°C° 0 mm 4 mps 754 mmHg 47%
    13:00 +30°C° 0 mm 4 mps 754 mmHg 46%
    14:00 +32°C° 0 mm 5 mps 754 mmHg 44%
    15:00 +29°C° 0 mm 5 mps 754 mmHg 53%
    16:00 +27°C° 0 mm 6 mps 754 mmHg 62%
    17:00 +24°C° 0 mm 6 mps 754 mmHg 71%
    18:00 +23°C° 0 mm 6 mps 755 mmHg 76%
    19:00 +21°C° 0 mm 5 mps 755 mmHg 81%
    20:00 +20°C° 0 mm 5 mps 756 mmHg 86%
    21:00 +19°C° 0 mm 4 mps 756 mmHg 88%
    22:00 +18°C° 0 mm 4 mps 756 mmHg 89%
    23:00 +18°C° 0 mm 4 mps 756 mmHg 91%

    Day after tomorrow, 26 July, Friday

    Time Temperature Precipitation Wind Pressure Humidity
    00:00 +17°C° 0 mm 4 mps 756 mmHg 92%
    01:00 +17°C° 0 mm 3 mps 756 mmHg 93%
    02:00 +16°C° 0 mm 3 mps 756 mmHg 94%
    03:00 +16°C° 0 mm 3 mps 756 mmHg 95%
    04:00 +16°C° 0 mm 3 mps 756 mmHg 95%
    05:00 +16°C° 0 mm 3 mps 756 mmHg 95%
    06:00 +18°C° 0 mm 4 mps 756 mmHg 84%
    07:00 +20°C° 0 mm 4 mps 757 mmHg 73%
    08:00 +22°C° 0 mm 5 mps 757 mmHg 61%
    09:00 +23°C° 0 mm 6 mps 757 mmHg 57%
    10:00 +24°C° 0 mm 7 mps 757 mmHg 53%
    11:00 +26°C° 0 mm 7 mps 756 mmHg 48%
    12:00 +26°C° 0 mm 7 mps 756 mmHg 48%
    13:00 +26°C° 0 mm 8 mps 756 mmHg 48%
    14:00 +26°C° 0 mm 8 mps 756 mmHg 47%
    15:00 +24°C° 0 mm 8 mps 756 mmHg 52%
    16:00 +23°C° 0 mm 8 mps 756 mmHg 56%
    17:00 +22°C° 0 mm 7 mps 756 mmHg 60%
    18:00 +20°C° 0 mm 7 mps 757 mmHg 67%
    19:00 +19°C° 0 mm 6 mps 757 mmHg 73%
    20:00 +16°C° 0 mm 5 mps 757 mmHg 79%
    21:00 +17°C° 0 mm 4 mps 757 mmHg 81%
    22:00 +17°C° 0 mm 4 mps 757 mmHg 83%
    23:00 +17°C° 0 mm 4 mps 757 mmHg 85%

    27 July, Saturday

    Time Temperature Precipitation Wind Pressure Humidity
    00:00 +17°C° 0 mm 4 mps 757 mmHg 86%
    01:00 +15°C° 0 mm 4 mps 756 mmHg 88%
    02:00 +16°C° 0 mm 3 mps 756 mmHg 90%
    03:00 +16°C° 0 mm 3 mps 756 mmHg 90%
    04:00 +16°C° 0 mm 3 mps 756 mmHg 90%
    05:00 +17°C° 0 mm 3 mps 756 mmHg 90%
    06:00 +19°C° 0 mm 3 mps 756 mmHg 80%
    07:00 +21°C° 0 mm 3 mps 756 mmHg 70%
    08:00 +24°C° 0 mm 3 mps 756 mmHg 60%
    09:00 +23°C° 0 mm 4 mps 756 mmHg 64%
    10:00 +22°C° 0 mm 4 mps 756 mmHg 69%
    11:00 +22°C° 0 mm 4 mps 755 mmHg 74%
    12:00 +23°C° 0 mm 5 mps 755 mmHg 73%
    13:00 +25°C° 0 mm 5 mps 755 mmHg 73%
    14:00 +25°C° 0 mm 5 mps 755 mmHg 73%
    15:00 +25°C° 0 mm 5 mps 754 mmHg 71%
    16:00 +25°C° 0 mm 5 mps 754 mmHg 69%
    17:00 +25°C° 0 mm 5 mps 754 mmHg 67%
    18:00 +23°C° 0 mm 4 mps 754 mmHg 76%
    19:00 +21°C° 0 mm 4 mps 754 mmHg 85%
    20:00 +19°C° 0 mm 3 mps 755 mmHg 94%
    21:00 +19°C° 0 mm 2 mps 754 mmHg 93%
    22:00 +19°C° 0 mm 2 mps 754 mmHg 92%
    23:00 +18°C° 0 mm 2 mps 754 mmHg 92%

    28 July, Sunday

    Time Temperature Precipitation Wind Pressure Humidity
    00:00 +18°C° 0 mm 2 mps 754 mmHg 91%
    01:00 +18°C° 0 mm 2 mps 753 mmHg 91%
    02:00 +17°C° 0 mm 2 mps 753 mmHg 90%
    03:00 +17°C° 0 mm 2 mps 753 mmHg 90%
    04:00 +17°C° 0 mm 2 mps 753 mmHg 91%
    05:00 +17°C° 0 mm 2 mps 753 mmHg 91%
    06:00 +19°C° 0 mm 3 mps 753 mmHg 80%
    07:00 +21°C° 0 mm 4 mps 754 mmHg 69%
    08:00 +25°C° 0 mm 4 mps 754 mmHg 59%
    09:00 +26°C° 0 mm 5 mps 754 mmHg 54%
    10:00 +27°C° 0 mm 5 mps 754 mmHg 50%
    11:00 +28°C° 0 mm 5 mps 754 mmHg 45%
    12:00 +28°C° 0 mm 6 mps 753 mmHg 45%
    13:00 +28°C° 0 mm 6 mps 753 mmHg 45%
    14:00 +28°C° 0 mm 7 mps 753 mmHg 45%
    15:00 +27°C° 0 mm 7 mps 753 mmHg 48%
    16:00 +24°C° 0 mm 7 mps 753 mmHg 51%
    17:00 +23°C° 0 mm 8 mps 753 mmHg 54%
    18:00 +21°C° 0 mm 7 mps 753 mmHg 63%
    19:00 +19°C° 0 mm 6 mps 753 mmHg 71%
    20:00 +16°C° 0 mm 5 mps 754 mmHg 80%
    21:00 +17°C° 0 mm 4 mps 754 mmHg 83%
    22:00 +17°C° 0 mm 4 mps 754 mmHg 86%
    23:00 +16°C° 0 mm 3 mps 754 mmHg 88%

    29 July, Monday

    Time Temperature Precipitation Wind Pressure Humidity
    00:00 +16°C° 0 mm 3 mps 754 mmHg 90%
    01:00 +16°C° 0 mm 3 mps 753 mmHg 92%
    02:00 +16°C° 0 mm 3 mps 753 mmHg 93%
    03:00 +16°C° 0 mm 3 mps 753 mmHg 93%
    04:00 +16°C° 0 mm 3 mps 754 mmHg 93%
    05:00 +16°C° 0 mm 3 mps 754 mmHg 94%
    06:00 +18°C° 0 mm 3 mps 754 mmHg 79%
    07:00 +21°C° 0 mm 4 mps 754 mmHg 64%
    08:00 +25°C° 0 mm 4 mps 754 mmHg 50%
    09:00 +26°C° 0 mm 5 mps 755 mmHg 44%
    10:00 +28°C° 0 mm 5 mps 755 mmHg 38%
    11:00 +30°C° 0 mm 6 mps 755 mmHg 32%
    12:00 +30°C° 0 mm 6 mps 754 mmHg 33%
    13:00 +29°C° 0 mm 7 mps 754 mmHg 35%
    14:00 +29°C° 0 mm 7 mps 754 mmHg 36%
    15:00 +28°C° 0 mm 7 mps 754 mmHg 43%
    16:00 +27°C° 0 mm 7 mps 754 mmHg 51%
    17:00 +24°C° 0 mm 7 mps 754 mmHg 58%
    18:00 +23°C° 0 mm 6 mps 754 mmHg 69%
    19:00 +21°C° 0 mm 5 mps 755 mmHg 80%
    20:00 +20°C° 0 mm 4 mps 756 mmHg 91%
    21:00 +20°C° 0 mm 5 mps 756 mmHg 89%
    22:00 +20°C° 0 mm 5 mps 756 mmHg 86%
    23:00 +20°C° 0 mm 6 mps 756 mmHg 83%
    Show more